When you browse on this site, cookies collect data to enhance your experience and personalize the content and advertising you see.
Visit our Privacy Policy to learn more. By continuing to use the site, you agree to this use of cookies and data.
  • In United Kingdom
  • List of Countries
  • For 7 days
  • Water Temperature
  • Weather Map
  • Weather Widgets
  • user-avatar
    Login

    Hourly Weather Vecses

    Today, 19 September, Thursday

    Time Temperature Precipitation Wind Pressure Humidity
    00:00 +12°C° 0 mm 2 mps 756 mmHg 47%
    01:00 +10°C° 0 mm 2 mps 756 mmHg 49%
    02:00 +10°C° 0 mm 2 mps 756 mmHg 51%
    03:00 +10°C° 0 mm 2 mps 756 mmHg 53%
    04:00 +10°C° 0 mm 2 mps 756 mmHg 55%
    05:00 +10°C° 0 mm 2 mps 756 mmHg 55%
    06:00 +12°C° 0 mm 2 mps 757 mmHg 55%
    07:00 +12°C° 0 mm 2 mps 757 mmHg 55%
    08:00 +13°C° 0 mm 3 mps 757 mmHg 50%
    09:00 +14°C° 0 mm 4 mps 757 mmHg 45%
    10:00 +17°C° 0 mm 4 mps 757 mmHg 41%
    11:00 +17°C° 0 mm 4 mps 757 mmHg 37%
    12:00 +18°C° 0 mm 4 mps 757 mmHg 34%
    13:00 +19°C° 0 mm 4 mps 756 mmHg 31%
    14:00 +19°C° 0 mm 4 mps 756 mmHg 32%
    15:00 +17°C° 0 mm 5 mps 756 mmHg 32%
    16:00 +17°C° 0 mm 5 mps 756 mmHg 33%
    17:00 +17°C° 0 mm 4 mps 756 mmHg 37%
    18:00 +14°C° 0 mm 4 mps 757 mmHg 40%
    19:00 +13°C° 0 mm 3 mps 757 mmHg 44%
    20:00 +12°C° 0 mm 3 mps 757 mmHg 46%
    21:00 +12°C° 0 mm 3 mps 758 mmHg 48%
    22:00 +11°C° 0 mm 4 mps 758 mmHg 50%
    23:00 +11°C° 0 mm 3 mps 758 mmHg 53%

    Tomorrow, 20 September, Friday

    Time Temperature Precipitation Wind Pressure Humidity
    00:00 +10°C° 0 mm 3 mps 758 mmHg 56%
    01:00 +10°C° 0 mm 3 mps 758 mmHg 59%
    02:00 +9°C° 0 mm 3 mps 758 mmHg 62%
    03:00 +9°C° 0 mm 3 mps 758 mmHg 65%
    04:00 +8°C° 0 mm 2 mps 758 mmHg 68%
    05:00 +9°C° 0 mm 2 mps 758 mmHg 66%
    06:00 +9°C° 0 mm 2 mps 758 mmHg 64%
    07:00 +10°C° 0 mm 2 mps 758 mmHg 63%
    08:00 +13°C° 0 mm 2 mps 759 mmHg 55%
    09:00 +15°C° 0 mm 2 mps 759 mmHg 47%
    10:00 +16°C° 0 mm 2 mps 760 mmHg 40%
    11:00 +17°C° 0 mm 2 mps 759 mmHg 35%
    12:00 +18°C° 0 mm 2 mps 759 mmHg 31%
    13:00 +19°C° 0 mm 2 mps 758 mmHg 26%
    14:00 +19°C° 0 mm 2 mps 758 mmHg 26%
    15:00 +19°C° 0 mm 2 mps 758 mmHg 26%
    16:00 +19°C° 0 mm 2 mps 758 mmHg 26%
    17:00 +18°C° 0 mm 1 mps 758 mmHg 29%
    18:00 +16°C° 0 mm 1 mps 758 mmHg 33%
    19:00 +14°C° 0 mm 1 mps 758 mmHg 36%
    20:00 +14°C° 0 mm 1 mps 758 mmHg 39%
    21:00 +13°C° 0 mm 1 mps 758 mmHg 41%
    22:00 +13°C° 0 mm 1 mps 759 mmHg 43%
    23:00 +12°C° 0 mm 1 mps 759 mmHg 45%

    Day after tomorrow, 21 September, Saturday

    Time Temperature Precipitation Wind Pressure Humidity
    00:00 +12°C° 0 mm 1 mps 759 mmHg 47%
    01:00 +11°C° 0 mm 1 mps 759 mmHg 48%
    02:00 +11°C° 0 mm 1 mps 759 mmHg 49%
    03:00 +10°C° 0 mm 1 mps 759 mmHg 50%
    04:00 +10°C° 0 mm 1 mps 759 mmHg 51%
    05:00 +10°C° 0 mm 1 mps 759 mmHg 50%
    06:00 +11°C° 0 mm 1 mps 759 mmHg 49%
    07:00 +11°C° 0 mm 1 mps 759 mmHg 48%
    08:00 +13°C° 0 mm 1 mps 759 mmHg 43%
    09:00 +15°C° 0 mm 2 mps 759 mmHg 38%
    10:00 +17°C° 0 mm 2 mps 759 mmHg 34%
    11:00 +18°C° 0 mm 2 mps 759 mmHg 31%
    12:00 +19°C° 0 mm 2 mps 758 mmHg 29%
    13:00 +20°C° 0 mm 2 mps 758 mmHg 27%
    14:00 +21°C° 0 mm 2 mps 757 mmHg 27%
    15:00 +21°C° 0 mm 2 mps 757 mmHg 27%
    16:00 +21°C° 0 mm 2 mps 756 mmHg 26%
    17:00 +19°C° 0 mm 2 mps 756 mmHg 30%
    18:00 +17°C° 0 mm 2 mps 756 mmHg 33%
    19:00 +16°C° 0 mm 2 mps 756 mmHg 36%
    20:00 +15°C° 0 mm 2 mps 756 mmHg 37%
    21:00 +14°C° 0 mm 2 mps 756 mmHg 38%
    22:00 +14°C° 0 mm 2 mps 756 mmHg 40%
    23:00 +13°C° 0 mm 2 mps 756 mmHg 41%

    22 September, Sunday

    Time Temperature Precipitation Wind Pressure Humidity
    00:00 +13°C° 0 mm 2 mps 755 mmHg 42%
    01:00 +12°C° 0 mm 2 mps 755 mmHg 43%
    02:00 +12°C° 0 mm 2 mps 755 mmHg 45%
    03:00 +12°C° 0 mm 2 mps 755 mmHg 46%
    04:00 +10°C° 0 mm 2 mps 754 mmHg 47%
    05:00 +11°C° 0 mm 3 mps 754 mmHg 47%
    06:00 +11°C° 0 mm 3 mps 754 mmHg 47%
    07:00 +12°C° 0 mm 3 mps 754 mmHg 46%
    08:00 +14°C° 0 mm 3 mps 754 mmHg 41%
    09:00 +17°C° 0 mm 4 mps 754 mmHg 36%
    10:00 +19°C° 0 mm 4 mps 753 mmHg 31%
    11:00 +21°C° 0 mm 4 mps 753 mmHg 28%
    12:00 +22°C° 0 mm 5 mps 752 mmHg 25%
    13:00 +25°C° 0 mm 5 mps 752 mmHg 21%
    14:00 +25°C° 0 mm 4 mps 751 mmHg 22%
    15:00 +25°C° 0 mm 4 mps 750 mmHg 23%
    16:00 +25°C° 0 mm 4 mps 750 mmHg 24%
    17:00 +23°C° 0 mm 4 mps 750 mmHg 26%
    18:00 +22°C° 0 mm 3 mps 749 mmHg 28%
    19:00 +21°C° 0 mm 3 mps 749 mmHg 29%
    20:00 +21°C° 0 mm 3 mps 749 mmHg 29%
    21:00 +20°C° 0 mm 3 mps 749 mmHg 29%
    22:00 +20°C° 0 mm 3 mps 749 mmHg 29%
    23:00 +20°C° 0 mm 2 mps 748 mmHg 29%

    23 September, Monday

    Time Temperature Precipitation Wind Pressure Humidity
    00:00 +20°C° 0 mm 2 mps 748 mmHg 29%
    01:00 +20°C° 0 mm 2 mps 748 mmHg 30%
    02:00 +19°C° 0 mm 2 mps 748 mmHg 31%
    03:00 +19°C° 0 mm 2 mps 747 mmHg 31%
    04:00 +19°C° 0 mm 2 mps 747 mmHg 32%
    05:00 +19°C° 0.2 mm 2 mps 747 mmHg 39%
    06:00 +18°C° 0.2 mm 2 mps 747 mmHg 46%
    07:00 +18°C° 0.2 mm 3 mps 747 mmHg 54%
    08:00 +18°C° 1 mm 3 mps 747 mmHg 65%
    09:00 +18°C° 1 mm 3 mps 747 mmHg 75%
    10:00 +17°C° 1 mm 4 mps 747 mmHg 86%
    11:00 +18°C° 0.2 mm 3 mps 747 mmHg 80%
    12:00 +19°C° 0.2 mm 3 mps 747 mmHg 74%
    13:00 +20°C° 0.2 mm 3 mps 747 mmHg 68%
    14:00 +20°C° 0 mm 4 mps 747 mmHg 68%
    15:00 +20°C° 0 mm 4 mps 747 mmHg 67%
    16:00 +20°C° 0 mm 5 mps 746 mmHg 66%
    17:00 +19°C° 0 mm 4 mps 747 mmHg 71%
    18:00 +18°C° 0 mm 4 mps 747 mmHg 75%
    19:00 +16°C° 0 mm 3 mps 747 mmHg 80%
    20:00 +17°C° 0.1 mm 4 mps 747 mmHg 79%
    21:00 +17°C° 0.1 mm 4 mps 748 mmHg 78%
    22:00 +16°C° 0.1 mm 5 mps 748 mmHg 77%
    23:00 +15°C° 0 mm 5 mps 748 mmHg 77%

    24 September, Tuesday

    Time Temperature Precipitation Wind Pressure Humidity
    00:00 +15°C° 0 mm 5 mps 748 mmHg 77%
    01:00 +14°C° 0 mm 5 mps 748 mmHg 78%
    02:00 +14°C° 0 mm 5 mps 748 mmHg 78%
    03:00 +14°C° 0 mm 5 mps 748 mmHg 79%
    04:00 +14°C° 0 mm 5 mps 748 mmHg 80%
    05:00 +14°C° 0 mm 5 mps 748 mmHg 78%
    06:00 +14°C° 0 mm 5 mps 749 mmHg 76%
    07:00 +14°C° 0 mm 5 mps 749 mmHg 74%
    08:00 +15°C° 0 mm 6 mps 749 mmHg 67%
    09:00 +17°C° 0 mm 6 mps 749 mmHg 60%
    10:00 +19°C° 0 mm 6 mps 750 mmHg 54%
    11:00 +20°C° 0 mm 6 mps 750 mmHg 50%
    12:00 +21°C° 0 mm 6 mps 749 mmHg 47%
    13:00 +22°C° 0 mm 6 mps 749 mmHg 43%
    14:00 +21°C° 0 mm 6 mps 749 mmHg 46%
    15:00 +21°C° 0 mm 7 mps 749 mmHg 49%
    16:00 +20°C° 0 mm 7 mps 749 mmHg 52%
    17:00 +19°C° 0 mm 6 mps 749 mmHg 57%
    18:00 +17°C° 0 mm 5 mps 749 mmHg 61%
    19:00 +17°C° 0 mm 4 mps 750 mmHg 66%
    20:00 +17°C° 0 mm 4 mps 750 mmHg 67%
    21:00 +17°C° 0 mm 3 mps 750 mmHg 68%
    22:00 +16°C° 0 mm 3 mps 750 mmHg 70%
    23:00 +16°C° 0 mm 2 mps 750 mmHg 72%
    Show more